Weather History for Frenchville, ME

Change the Weather History Date:

Thursday, October 3, 2013

  Actual Average Record
Temperature  
Mean Temperature 54 °F 47 °F  
Max Temperature 63 °F 55 °F 78 °F (2005)
Min Temperature 45 °F 38 °F 30 °F (1997)
Degree Days  
Heating Degree Days 11    
Month to date heating degree days 23  
Since 1 July heating degree days 479  
Cooling Degree Days 0    
Month to date cooling degree days 0  
Year to date cooling degree days 139  
Growing Degree Days 6 (Base 50)    
Moisture  
Dew Point 39 °F    
Average Humidity 56    
Maximum Humidity 74    
Minimum Humidity 40    
Precipitation  
Precipitation 0.00 in 0.09 in 0.70 in (2011)
Month to date precipitation 0.00 0.25  
Year to date precipitation 28.41 25.83  
Sea Level Pressure  
Sea Level Pressure 29.89 in    
Wind  
Wind Speed 12 mph (WNW)    
Max Wind Speed 28 mph    
Max Gust Speed 35 mph    
Visibility 10 miles    
Events      
T = Trace of Precipitation, MM = Missing Value Source: NWS Daily Summary

Daily Weather History Graph

Daily Weather History Graph

Search for Another Location

Airport:

Trip Planner

Search our weather history database for the weather conditions in past years. The results will help you decide how hot, cold, wet, or windy it might be!

Date:

Astronomy

Oct. 03, 2013 Rise Set
Actual Time 6:35 AM EDT 6:08 PM EDT
Civil Twilight 6:04 AM EDT 6:38 PM EDT
Nautical Twilight 5:29 AM EDT 7:14 PM EDT
Astronomical Twilight 4:53 AM EDT 7:50 PM EDT
Moon 5:01 AM EDT (10/3) 5:16 PM EDT (10/3)
Length of Visible Light 12h 34m
Length of Day
11h 33m
Waning Crescent, 2% of the Moon is Illuminated
Oct 3
Waning Crescent
Oct 4
New
Oct 11
First Quarter
Oct 18
Full
Oct 26
Last Quarter

Hourly Weather History & Observations

Time (EDT) Temp. Dew Point Humidity Pressure Visibility Wind Dir Wind Speed Gust Speed Precip Events Conditions
12:53 AM 54.0 °F 39.9 °F 59% 29.78 in 10.0 mi WNW 15.0 mph - N/A   Clear
1:53 AM 55.0 °F 39.0 °F 55% 29.79 in 10.0 mi WNW 15.0 mph - N/A   Clear
2:53 AM 52.0 °F 39.0 °F 61% 29.80 in 10.0 mi WNW 10.4 mph - N/A   Clear
3:53 AM 51.1 °F 39.9 °F 66% 29.81 in 10.0 mi NW 9.2 mph - N/A   Clear
4:53 AM 51.1 °F 39.9 °F 66% 29.83 in 10.0 mi WNW 13.8 mph - N/A   Clear
5:53 AM 50.0 °F 41.0 °F 71% 29.85 in 10.0 mi WNW 11.5 mph - N/A   Clear
6:53 AM 48.9 °F 41.0 °F 74% 29.86 in 10.0 mi West 10.4 mph - N/A   Clear
7:53 AM 50.0 °F 42.1 °F 74% 29.88 in 10.0 mi WSW 5.8 mph - N/A   Clear
8:53 AM 53.1 °F 41.0 °F 64% 29.90 in 10.0 mi WSW 6.9 mph - N/A   Mostly Cloudy
9:53 AM 55.9 °F 39.9 °F 55% 29.91 in 10.0 mi WNW 16.1 mph 25.3 mph N/A   Overcast
10:53 AM 57.9 °F 39.9 °F 51% 29.91 in 10.0 mi West 18.4 mph 27.6 mph N/A   Mostly Cloudy
11:53 AM 61.0 °F 39.0 °F 44% 29.90 in 10.0 mi WNW 16.1 mph 27.6 mph N/A   Scattered Clouds
12:53 PM 61.0 °F 39.0 °F 44% 29.90 in 10.0 mi WNW 21.9 mph 29.9 mph N/A   Clear
1:53 PM 62.1 °F 39.0 °F 43% 29.90 in 10.0 mi WNW 19.6 mph 34.5 mph N/A   Partly Cloudy
2:53 PM 63.0 °F 37.9 °F 40% 29.89 in 10.0 mi WNW 17.3 mph 27.6 mph N/A   Clear
3:53 PM 62.1 °F 37.9 °F 41% 29.90 in 10.0 mi WNW 15.0 mph 27.6 mph N/A   Scattered Clouds
4:53 PM 61.0 °F 37.0 °F 41% 29.91 in 10.0 mi WNW 16.1 mph 25.3 mph N/A   Scattered Clouds
5:53 PM 57.9 °F 36.0 °F 44% 29.93 in 10.0 mi NW 18.4 mph 27.6 mph N/A   Clear
6:53 PM 55.0 °F 37.0 °F 51% 29.94 in 10.0 mi NW 6.9 mph - N/A   Clear
7:53 PM 53.1 °F 37.0 °F 55% 29.95 in 10.0 mi West 8.1 mph - N/A   Clear
8:53 PM 51.1 °F 37.9 °F 61% 29.95 in 10.0 mi WSW 6.9 mph - N/A   Clear
9:53 PM 50.0 °F 37.9 °F 63% 29.95 in 10.0 mi West 6.9 mph - N/A   Clear
10:53 PM 46.9 °F 37.9 °F 71% 29.95 in 10.0 mi WNW 4.6 mph - N/A   Clear